Beatrice, NE

2:04 PM CST on January 23, 2017 (GMT -0600)
Beatrice Municipal

Weather History for KBIE - July, 2013

Change the Weather History Date:

Thursday, July 4, 2013

  Actual Average Record
Temperature  
Mean Temperature 74 °F -  
Max Temperature 88 °F 90 °F 103 °F (1969)
Min Temperature 59 °F 66 °F 50 °F (1967)
Cooling Degree Days 8    
Growing Degree Days 24 (Base 50)    
Moisture  
Dew Point 54 °F    
Average Humidity 53    
Maximum Humidity 88    
Minimum Humidity 28    
Precipitation  
Precipitation 0.00 in - - ()
Sea Level Pressure  
Sea Level Pressure 29.97 in    
Wind  
Wind Speed 9 mph (SSE)    
Max Wind Speed 16 mph    
Max Gust Speed 20 mph    
Visibility 10 miles    
Events      
Averages and records for this station are not official NWS values.
T = Trace of Precipitation, MM = Missing Value Source: NWS Daily Summary

Daily Weather History Graph

Daily Weather History Graph

Search for Another Location

Airport or City:

Trip Planner

Search our weather history database for the weather conditions in past years. The results will help you decide how hot, cold, wet, or windy it might be!

Date:

Astronomy

Jul. 04, 2013 Rise Set
Actual Time 6:02 AM CDT 9:00 PM CDT
Civil Twilight 5:29 AM CDT 9:32 PM CDT
Nautical Twilight 4:48 AM CDT 10:14 PM CDT
Astronomical Twilight 4:00 AM CDT 11:02 PM CDT
Moon 3:20 AM CDT (7/4) 6:05 PM CDT (7/4)
Length of Visible Light 16h 02m
Length of Day
14h 57m
Waning Crescent, 11% of the Moon is Illuminated
Jul 4
Waning Crescent
Jul 8
New
Jul 15
First Quarter
Jul 22
Full
Jul 29
Last Quarter

Hourly Weather History & Observations

Time (CDT) Temp. Heat Index Dew Point Humidity Pressure Visibility Wind Dir Wind Speed Gust Speed Precip Events Conditions
12:15 AM 69.4 °F - 54.1 °F 58% 30.00 in 10.0 mi SSE 9.2 mph 17.3 mph N/A   Clear
12:35 AM 69.1 °F - 53.6 °F 58% 30.00 in 10.0 mi SSE 8.1 mph - N/A   Clear
12:55 AM 68.2 °F - 53.6 °F 60% 30.00 in 10.0 mi SSE 8.1 mph - N/A   Clear
1:15 AM 67.8 °F - 53.6 °F 60% 30.00 in 10.0 mi SSE 8.1 mph - N/A   Clear
1:35 AM 67.1 °F - 53.6 °F 62% 30.00 in 10.0 mi SSE 6.9 mph - N/A   Clear
1:55 AM 66.4 °F - 53.6 °F 63% 30.00 in 10.0 mi SSE 8.1 mph - N/A   Clear
2:15 AM 65.3 °F - 54.0 °F 67% 30.00 in 10.0 mi South 6.9 mph - N/A   Clear
2:35 AM 64.9 °F - 54.3 °F 68% 29.99 in 10.0 mi SSE 8.1 mph - N/A   Clear
2:55 AM 64.6 °F - 54.5 °F 70% 29.99 in 10.0 mi SSE 8.1 mph - N/A   Clear
3:15 AM 64.0 °F - 54.9 °F 72% 29.99 in 10.0 mi SSE 6.9 mph - N/A   Clear
3:35 AM 63.3 °F - 54.9 °F 74% 30.00 in 10.0 mi SSE 5.8 mph - N/A   Clear
3:55 AM 63.0 °F - 55.2 °F 76% 29.99 in 10.0 mi SSE 5.8 mph - N/A   Clear
4:15 AM 62.6 °F - 55.4 °F 77% 29.99 in 10.0 mi SSE 4.6 mph - N/A   Mostly Cloudy
4:35 AM 63.0 °F - 55.4 °F 76% 29.99 in 10.0 mi SSE 5.8 mph - N/A   Mostly Cloudy
4:55 AM 62.6 °F - 55.4 °F 77% 30.00 in 10.0 mi SSE 4.6 mph - N/A   Scattered Clouds
5:15 AM 61.9 °F - 55.8 °F 80% 30.00 in 10.0 mi SSE 3.5 mph - N/A   Scattered Clouds
5:35 AM 61.7 °F - 55.8 °F 81% 30.00 in 10.0 mi South 4.6 mph - N/A   Scattered Clouds
5:55 AM 60.4 °F - 55.8 °F 85% 30.00 in 10.0 mi SSE 3.5 mph - N/A   Clear
6:15 AM 60.1 °F - 55.9 °F 86% 30.00 in 10.0 mi ESE 3.5 mph - N/A   Clear
6:35 AM 59.7 °F - 56.3 °F 88% 30.00 in 10.0 mi SE 3.5 mph - N/A   Clear
6:55 AM 60.6 °F - 56.5 °F 86% 30.00 in 10.0 mi SE 4.6 mph - N/A   Clear
7:15 AM 63.3 °F - 56.7 °F 79% 30.00 in 10.0 mi South 6.9 mph - N/A   Scattered Clouds
7:35 AM 64.0 °F - 56.5 °F 76% 30.00 in 10.0 mi South 9.2 mph - N/A   Clear
7:55 AM 65.5 °F - 57.2 °F 75% 30.01 in 10.0 mi SSE 8.1 mph - N/A   Clear
8:15 AM 65.5 °F - 57.6 °F 76% 30.02 in 10.0 mi South 6.9 mph - N/A   Clear
8:35 AM 66.4 °F - 57.7 °F 74% 30.02 in 10.0 mi South 6.9 mph - N/A   Clear
8:55 AM 67.6 °F - 58.3 °F 72% 30.02 in 10.0 mi SSW 8.1 mph - N/A   Mostly Cloudy
9:15 AM 70.2 °F - 58.6 °F 67% 30.01 in 10.0 mi South 9.2 mph - N/A   Scattered Clouds
9:35 AM 71.6 °F - 57.2 °F 60% 30.01 in 10.0 mi South 10.4 mph - N/A   Clear
9:55 AM 75.0 °F - 57.0 °F 53% 30.00 in 10.0 mi South 11.5 mph - N/A   Scattered Clouds
10:35 AM 77.5 °F - 55.4 °F 46% 30.00 in 10.0 mi South 11.5 mph - N/A   Scattered Clouds
10:55 AM 78.4 °F - 55.9 °F 46% 30.01 in 10.0 mi South 11.5 mph - N/A   Scattered Clouds
11:15 AM 79.5 °F - 55.8 °F 44% 30.00 in 10.0 mi South 15.0 mph 19.6 mph N/A   Scattered Clouds
11:35 AM 81.1 °F 80.9 °F 55.4 °F 41% 30.00 in 10.0 mi South 12.7 mph - N/A   Scattered Clouds
11:55 AM 82.0 °F 81.5 °F 55.4 °F 40% 30.00 in 10.0 mi South 13.8 mph 18.4 mph N/A   Clear
12:15 PM 82.8 °F 82.0 °F 55.8 °F 39% 29.99 in 10.0 mi South 11.5 mph - N/A   Clear
12:35 PM 83.1 °F 82.1 °F 54.3 °F 37% 29.99 in 10.0 mi SSE 11.5 mph - N/A   Scattered Clouds
12:55 PM 83.5 °F - 52.5 °F 34% 29.99 in 10.0 mi South 11.5 mph - N/A   Scattered Clouds
1:15 PM 85.6 °F 83.8 °F 53.4 °F 33% 29.98 in 10.0 mi South 10.4 mph - N/A   Scattered Clouds
1:35 PM 85.6 °F - 50.5 °F 30% 29.97 in 10.0 mi South 10.4 mph 18.4 mph N/A   Scattered Clouds
2:15 PM 86.7 °F - 51.1 °F 29% 29.96 in 10.0 mi SSE 8.1 mph - N/A   Clear
2:35 PM 86.9 °F - 50.7 °F 29% 29.96 in 10.0 mi South 12.7 mph 19.6 mph N/A   Clear
2:55 PM 87.1 °F - 50.7 °F 29% 29.96 in 10.0 mi SSE 12.7 mph - N/A   Clear
3:15 PM 87.3 °F - 50.7 °F 28% 29.95 in 10.0 mi South 13.8 mph - N/A   Clear
3:35 PM 87.4 °F - 50.2 °F 28% 29.95 in 10.0 mi SSE 15.0 mph 19.6 mph N/A   Clear
3:55 PM 88.2 °F - 50.7 °F 28% 29.95 in 10.0 mi SSW 16.1 mph 19.6 mph N/A   Clear
4:15 PM 87.6 °F - 51.8 °F 29% 29.95 in 10.0 mi South 11.5 mph - N/A   Clear
4:35 PM 86.4 °F - 51.1 °F 30% 29.95 in 10.0 mi SSW 12.7 mph - N/A   Clear
4:55 PM 84.7 °F - 50.2 °F 30% 29.95 in 10.0 mi South 9.2 mph - N/A   Clear
5:15 PM 86.0 °F - 50.4 °F 29% 29.94 in 10.0 mi SSE 9.2 mph - N/A   Scattered Clouds
5:55 PM 86.7 °F - 50.0 °F 28% 29.93 in 10.0 mi SSE 13.8 mph - N/A   Clear
6:15 PM 86.2 °F - 50.4 °F 29% 29.93 in 10.0 mi SSE 12.7 mph 18.4 mph N/A   Clear
6:35 PM 85.6 °F - 50.9 °F 30% 29.92 in 10.0 mi SSE 10.4 mph - N/A   Clear
6:55 PM 85.1 °F - 50.9 °F 31% 29.92 in 10.0 mi SSE 11.5 mph - N/A   Clear
7:15 PM 84.6 °F - 50.7 °F 31% 29.91 in 10.0 mi SSE 8.1 mph - N/A   Clear
7:35 PM 83.7 °F - 50.0 °F 31% 29.91 in 10.0 mi SSE 11.5 mph - N/A   Clear
7:55 PM 82.9 °F - 51.1 °F 33% 29.91 in 10.0 mi SSE 10.4 mph - N/A   Clear
8:15 PM 81.7 °F - 52.3 °F 36% 29.91 in 10.0 mi SSE 9.2 mph - N/A   Clear
8:35 PM 80.8 °F 80.6 °F 54.9 °F 41% 29.91 in 10.0 mi SE 9.2 mph - N/A   Clear
8:55 PM 79.7 °F - 55.6 °F 43% 29.90 in 10.0 mi SSE 9.2 mph - N/A   Clear
9:15 PM 78.4 °F - 56.3 °F 46% 29.90 in 10.0 mi SE 10.4 mph - N/A   Clear
9:35 PM 77.9 °F - 56.3 °F 47% 29.90 in 10.0 mi SE 9.2 mph - N/A   Clear
9:55 PM 77.0 °F - 56.5 °F 49% 29.91 in 10.0 mi SSE 10.4 mph - N/A   Clear
10:15 PM 76.3 °F - 57.0 °F 51% 29.91 in 10.0 mi SSE 10.4 mph - N/A   Clear
10:35 PM 75.6 °F - 57.2 °F 53% 29.92 in 10.0 mi SSE 10.4 mph - N/A   Clear
10:55 PM 74.8 °F - 57.6 °F 55% 29.92 in 10.0 mi SSE 9.2 mph - N/A   Scattered Clouds
11:15 PM 74.5 °F - 57.9 °F 56% 29.92 in 10.0 mi SSE 10.4 mph - N/A   Scattered Clouds
11:35 PM 73.4 °F - 58.1 °F 59% 29.93 in 10.0 mi SSE 10.4 mph - N/A   Scattered Clouds
11:55 PM 73.2 °F - 57.9 °F 59% 29.93 in 10.0 mi SSE 10.4 mph 16.1 mph N/A   Scattered Clouds